Location: Unspecified
(43.3116°N, 2.0147°W)
Time: 21:33:44
(UTC+02:00)

ISS - Visible Passes

Search period start: 24 July 2024 00:00
Search period end: 03 August 2024 00:00
Orbit: 409 x 423 km, 51.6° (Epoch: 24 July)

Date Brightness Start Highest point End Pass type
(mag) Time Alt. Az. Time Alt. Az. Time Alt. Az.
24 Jul -3.7 23:01:03 10° NW 23:04:22 69° NNE 23:06:08 25° ESE visible
25 Jul -1.0 00:38:38 10° W 00:39:01 12° W 00:39:01 12° W visible
25 Jul -3.0 22:12:30 10° NW 22:15:42 45° NNE 22:18:53 10° E visible
25 Jul -2.3 23:49:27 10° WNW 23:52:07 26° SW 23:52:07 26° SW visible
26 Jul -3.2 23:00:34 10° WNW 23:03:45 45° SW 23:05:15 26° SSE visible
27 Jul -3.8 22:11:49 10° WNW 22:15:07 79° SW 22:18:24 10° SE visible
27 Jul -1.0 23:51:07 10° SW 23:51:17 10° SW 23:51:17 10° SW visible
28 Jul -1.6 23:00:32 10° W 23:02:48 17° SW 23:04:28 13° SSW visible
29 Jul -2.3 22:11:17 10° WNW 22:14:12 29° SW 22:17:07 10° SSE visible
31 Jul -1.0 22:11:52 10° WSW 22:12:56 11° SW 22:14:01 10° SSW visible
